Photometre #844[NE_1.6_Dp] Rhyl_MO AOT

File : 20210609_844.hum

09/06/2021,13:01:00,STAT.r
09/06/2021,14:13:34,TEMP=20.6,BA=5.64,STAT.F,ExtBa=13.10
09/06/2021,14:43:32,TEMP=22.2,BA=5.68,STAT.D,ExtBa=13.10
09/06/2021,14:54:26,TEMP=21.7,BA=5.64,STAT.D,ExtBa=13.00
09/06/2021,14:58:33,TEMP=21.7,BA=5.64,STAT.D,ExtBa=12.90
09/06/2021,15:09:27,TEMP=21.4,BA=5.64,STAT.D,ExtBa=13.00
09/06/2021,15:13:34,TEMP=21.6,BA=5.64,STAT.F,ExtBa=12.90
09/06/2021,15:24:26,TEMP=21.1,BA=5.64,STAT.D,ExtBa=12.90
09/06/2021,15:28:33,TEMP=21.1,BA=5.64,STAT.D,ExtBa=12.90
09/06/2021,15:39:26,TEMP=20.7,BA=5.64,STAT.D,ExtBa=12.90
09/06/2021,15:42:25,TEMP=21.0,BA=5.64,STAT.D,ExtBa=12.90
09/06/2021,15:44:32,TEMP=21.3,BA=5.64,STAT.D,ExtBa=12.80
09/06/2021,15:57:27,TEMP=21.0,BA=5.68,STAT.D,ExtBa=13.00
09/06/2021,15:59:45,TEMP=21.4,BA=5.68,STAT.D,ExtBa=12.90
09/06/2021,16:12:25,TEMP=20.9,BA=5.68,STAT.D,ExtBa=13.10
09/06/2021,16:14:27,TEMP=21.3,BA=5.68,STAT.B,ExtBa=13.00
09/06/2021,16:27:25,TEMP=20.0,BA=5.68,STAT.D,ExtBa=12.90
09/06/2021,16:39:25,TEMP=20.2,BA=5.68,STAT.D,ExtBa=13.30
09/06/2021,16:42:27,TEMP=20.8,BA=5.64,STAT.D,ExtBa=13.20
09/06/2021,16:45:25,TEMP=21.0,BA=5.64,STAT.D,ExtBa=13.10
09/06/2021,16:48:25,TEMP=21.2,BA=5.64,STAT.D,ExtBa=13.10
09/06/2021,16:51:25,TEMP=21.4,BA=5.64,STAT.D,ExtBa=13.00
09/06/2021,16:53:31,TEMP=21.6,BA=5.64,STAT.B,ExtBa=12.90
09/06/2021,17:06:25,TEMP=20.2,BA=5.68,STAT.D,ExtBa=12.90
09/06/2021,17:13:17,TEMP=20.0,BA=5.68,STAT.A,ExtBa=12.90
09/06/2021,17:20:07,TEMP=20.2,BA=5.64,STAT.D,ExtBa=13.00
09/06/2021,17:24:25,TEMP=20.6,BA=5.64,STAT.D,ExtBa=12.90
09/06/2021,17:27:25,TEMP=20.7,BA=5.64,STAT.D,ExtBa=12.80
09/06/2021,17:29:27,TEMP=20.9,BA=5.64,STAT.A,ExtBa=12.80
09/06/2021,17:33:25,TEMP=20.4,BA=5.64,STAT.D,ExtBa=12.80
09/06/2021,17:36:25,TEMP=20.6,BA=5.64,STAT.D,ExtBa=12.80
09/06/2021,17:39:25,TEMP=20.6,BA=5.64,STAT.D,ExtBa=12.70
09/06/2021,17:42:25,TEMP=20.6,BA=5.64,STAT.D,ExtBa=12.70
09/06/2021,17:44:43,TEMP=20.8,BA=5.64,STAT.A,ExtBa=12.70
09/06/2021,17:54:26,TEMP=19.6,BA=5.64,STAT.A,ExtBa=12.80
09/06/2021,18:04:21,TEMP=19.2,BA=5.64,STAT.C,ExtBa=12.80
09/06/2021,18:13:01,TEMP=19.4,BA=5.64,STAT.A,ExtBa=12.80
09/06/2021,18:15:24,TEMP=20.0,BA=5.64,STAT.D,ExtBa=12.70
09/06/2021,18:18:24,TEMP=20.1,BA=5.64,STAT.D,ExtBa=12.70
09/06/2021,18:20:39,TEMP=20.4,BA=5.60,STAT.A,ExtBa=12.70
09/06/2021,18:24:24,TEMP=20.4,BA=5.60,STAT.D,ExtBa=12.70
09/06/2021,18:27:24,TEMP=20.6,BA=5.60,STAT.D,ExtBa=12.70
09/06/2021,18:29:28,TEMP=21.0,BA=5.60,STAT.A,ExtBa=12.70
09/06/2021,18:33:25,TEMP=20.7,BA=5.60,STAT.D,ExtBa=12.70
09/06/2021,18:35:27,TEMP=21.1,BA=5.60,STAT.A,ExtBa=12.70
09/06/2021,18:39:03,TEMP=20.8,BA=5.60,STAT.B,ExtBa=12.70
09/06/2021,18:50:42,TEMP=20.6,BA=5.64,STAT.A,ExtBa=12.70
09/06/2021,18:54:25,TEMP=20.5,BA=5.64,STAT.D,ExtBa=12.70
09/06/2021,18:57:25,TEMP=20.5,BA=5.64,STAT.D,ExtBa=12.70
09/06/2021,19:00:06,TEMP=20.4,BA=5.56,STAT.A,ExtBa=12.60
09/06/2021,19:07:51,TEMP=19.3,BA=5.56,STAT.A,ExtBa=12.70
09/06/2021,19:14:21,TEMP=18.7,BA=5.60,STAT.A,ExtBa=12.70
09/06/2021,19:19:53,TEMP=18.4,BA=5.60,STAT.A,ExtBa=12.70
09/06/2021,19:24:25,TEMP=18.4,BA=5.52,STAT.D,ExtBa=12.70
09/06/2021,19:26:29,TEMP=18.7,BA=5.52,STAT.A,ExtBa=12.60